�������l�o���
Date,Time,MP-1(��Sv/h),MP-2(��Sv/h),MP-3(��Sv/h),MP-4(��Sv/h),MP-5(��Sv/h),MP-6(��Sv/h),MP-7(��Sv/h),MP-8(��Sv/h),����,����(m/s),���J
2021/06/28,00:00,0.627,0.929,0.590,1.137,0.820,0.370,0.651,0.607,�k�k��,5.9,��
2021/06/28,00:10,0.629,0.929,0.590,1.138,0.816,0.371,0.651,0.607,�k�k��,5.5,��
2021/06/28,00:20,0.628,0.929,0.593,1.136,0.818,0.372,0.649,0.607,�k�k��,6.4,��
2021/06/28,00:30,0.628,0.928,0.591,1.136,0.817,0.371,0.650,0.606,�k�k��,5.4,��
2021/06/28,00:40,0.628,0.929,0.591,1.138,0.818,0.372,0.650,0.608,�k�k��,5.5,��
2021/06/28,00:50,0.631,0.929,0.592,1.135,0.818,0.372,0.650,0.605,�k,5.5,��
2021/06/28,01:00,0.628,0.929,0.593,1.136,0.815,0.371,0.651,0.606,�k,5.2,��
2021/06/28,01:10,0.629,0.929,0.592,1.138,0.816,0.371,0.650,0.607,�k,4.8,��
2021/06/28,01:20,0.627,0.928,0.592,1.137,0.814,0.371,0.651,0.605,�k,4.8,��
2021/06/28,01:30,0.629,0.925,0.591,1.138,0.816,0.372,0.651,0.607,�k,4.6,��
2021/06/28,01:40,0.627,0.926,0.592,1.138,0.818,0.372,0.650,0.607,�k,4.9,��
2021/06/28,01:50,0.627,0.927,0.593,1.136,0.817,0.373,0.651,0.607,�k,4.7,��
2021/06/28,02:00,0.627,0.926,0.593,1.137,0.817,0.372,0.649,0.607,�k�k��,5.0,��
2021/06/28,02:10,0.627,0.927,0.593,1.137,0.815,0.371,0.650,0.607,�k,5.7,��
2021/06/28,02:20,0.625,0.930,0.593,1.137,0.814,0.371,0.650,0.607,�k,5.5,��
2021/06/28,02:30,0.626,0.926,0.592,1.136,0.817,0.371,0.650,0.606,�k,5.7,�L
2021/06/28,02:40,0.628,0.927,0.594,1.138,0.816,0.371,0.650,0.607,�k,4.8,��
2021/06/28,02:50,0.626,0.926,0.592,1.135,0.816,0.372,0.650,0.606,�k,4.4,��
2021/06/28,03:00,0.626,0.926,0.593,1.137,0.817,0.371,0.650,0.608,�k,4.2,�L
2021/06/28,03:10,0.627,0.929,0.594,1.134,0.816,0.371,0.648,0.607,�k�k��,3.7,�L
2021/06/28,03:20,0.628,0.928,0.594,1.136,0.815,0.371,0.650,0.606,�k�k��,3.8,�L
2021/06/28,03:30,0.627,0.925,0.593,1.133,0.815,0.371,0.648,0.606,�k�k��,3.7,��
2021/06/28,03:40,0.628,0.928,0.593,1.137,0.816,0.372,0.650,0.607,�k�k��,3.7,��
2021/06/28,03:50,0.627,0.930,0.594,1.137,0.817,0.372,0.650,0.607,�k�k��,3.8,��
2021/06/28,04:00,0.626,0.929,0.592,1.136,0.817,0.372,0.652,0.608,�k�k��,4.1,��
2021/06/28,04:10,0.629,0.930,0.595,1.135,0.814,0.373,0.650,0.607,�k�k��,5.7,��
2021/06/28,04:20,0.628,0.930,0.595,1.139,0.818,0.373,0.650,0.608,�k,5.2,��
2021/06/28,04:30,0.629,0.930,0.593,1.138,0.816,0.370,0.650,0.609,�k�k��,4.8,��
2021/06/28,04:40,0.628,0.930,0.594,1.137,0.818,0.374,0.651,0.607,�k�k��,4.5,��
2021/06/28,04:50,0.629,0.931,0.595,1.137,0.817,0.372,0.649,0.607,�k�k��,4.0,��
2021/06/28,05:00,0.629,0.929,0.595,1.138,0.819,0.372,0.652,0.608,�k�k��,4.0,��
2021/06/28,05:10,0.629,0.929,0.593,1.138,0.817,0.373,0.651,0.608,�k,4.0,��
2021/06/28,05:20,0.630,0.929,0.594,1.137,0.817,0.373,0.652,0.608,�k,3.8,��
2021/06/28,05:30,0.629,0.928,0.596,1.137,0.819,0.374,0.650,0.607,�k,4.2,��
2021/06/28,05:40,0.629,0.928,0.595,1.139,0.818,0.375,0.653,0.607,�k,5.1,��
2021/06/28,05:50,0.629,0.930,0.595,1.140,0.818,0.374,0.653,0.608,�k,5.1,��
2021/06/28,06:00,0.628,0.930,0.593,1.138,0.817,0.373,0.652,0.607,�k,4.5,�L
2021/06/28,06:10,0.626,0.929,0.593,1.137,0.816,0.374,0.650,0.608,�k,3.5,�L
2021/06/28,06:20,0.627,0.929,0.594,1.136,0.819,0.372,0.652,0.608,�k,3.5,�L
2021/06/28,06:30,0.626,0.929,0.594,1.136,0.817,0.373,0.651,0.608,�k�k��,4.2,�L
2021/06/28,06:40,0.627,0.930,0.594,1.140,0.818,0.372,0.650,0.606,�k,3.2,�L
2021/06/28,06:50,0.626,0.928,0.594,1.137,0.817,0.373,0.650,0.606,�k,3.6,�L
2021/06/28,07:00,0.627,0.928,0.594,1.137,0.817,0.372,0.649,0.607,�k�k��,5.4,�L
2021/06/28,07:10,0.626,0.929,0.593,1.137,0.817,0.373,0.649,0.607,�k�k��,5.9,��
2021/06/28,07:20,0.628,0.930,0.594,1.139,0.817,0.372,0.649,0.605,�k�k��,7.5,��
2021/06/28,07:30,0.627,0.930,0.593,1.138,0.817,0.372,0.650,0.606,�k,6.0,��
2021/06/28,07:40,0.627,0.927,0.594,1.134,0.818,0.373,0.650,0.606,�k�k��,7.3,��
2021/06/28,07:50,0.628,0.928,0.593,1.136,0.817,0.371,0.650,0.604,�k�k��,6.9,��
2021/06/28,08:00,0.628,0.928,0.593,1.138,0.816,0.371,0.649,0.604,�k�k��,6.2,��
2021/06/28,08:10,0.627,0.926,0.590,1.138,0.816,0.370,0.650,0.605,�k�k��,5.4,��
2021/06/28,08:20,0.627,0.926,0.591,1.137,0.815,0.371,0.648,0.605,�k�k��,6.6,��
2021/06/28,08:30,0.627,0.928,0.591,1.135,0.815,0.371,0.649,0.605,�k�k��,6.6,��
2021/06/28,08:40,0.629,0.926,0.591,1.139,0.815,0.371,0.650,0.604,�k�k��,6.9,��
2021/06/28,08:50,0.627,0.924,0.592,1.139,0.816,0.371,0.650,0.605,�k�k��,6.6,��
2021/06/28,09:00,0.629,0.923,0.590,1.137,0.816,0.372,0.649,0.606,�k�k��,7.2,��
2021/06/28,09:10,0.630,0.927,0.590,1.137,0.817,0.371,0.649,0.604,�k�k��,6.5,��
2021/06/28,09:20,0.627,0.925,0.590,1.136,0.816,0.370,0.650,0.605,�k�k��,5.8,��
2021/06/28,09:30,0.629,0.927,0.589,1.137,0.818,0.371,0.650,0.605,�k�k��,6.1,��
2021/06/28,09:40,0.629,0.926,0.590,1.138,0.818,0.372,0.650,0.605,�k�k��,6.2,��
2021/06/28,09:50,0.629,0.927,0.590,1.138,0.817,0.371,0.650,0.603,�k�k��,6.3,��
2021/06/28,10:00,0.631,0.928,0.592,1.138,0.816,0.372,0.650,0.605,�k�k��,6.6,��
2021/06/28,10:10,0.630,0.928,0.592,1.138,0.817,0.371,0.650,0.607,�k�k��,6.7,��
2021/06/28,10:20,0.629,0.926,0.592,1.141,0.819,0.373,0.651,0.606,�k�k��,7.0,��
2021/06/28,10:30,0.628,0.926,0.592,1.143,0.819,0.372,0.650,0.605,�k�k��,6.8,��
2021/06/28,10:40,0.629,0.928,0.593,1.139,0.819,0.371,0.651,0.604,�k�k��,6.2,��
2021/06/28,10:50,0.630,0.929,0.592,1.138,0.820,0.373,0.649,0.605,�k�k��,6.5,��
2021/06/28,11:00,0.630,0.929,0.592,1.138,0.821,0.372,0.651,0.605,�k�k��,6.2,��
2021/06/28,11:10,0.632,0.929,0.593,1.137,0.821,0.371,0.649,0.606,�k�k��,6.0,��
2021/06/28,11:20,0.631,0.931,0.591,1.135,0.820,0.373,0.650,0.605,�k�k��,5.9,��
2021/06/28,11:30,0.631,0.931,0.591,1.140,0.821,0.372,0.651,0.607,�k�k��,5.5,��
2021/06/28,11:40,0.632,0.931,0.593,1.140,0.821,0.373,0.653,0.606,�k�k��,5.1,��
2021/06/28,11:50,0.631,0.931,0.592,1.139,0.822,0.372,0.652,0.606,�k�k��,5.6,��
2021/06/28,12:00,0.633,0.932,0.591,1.137,0.822,0.373,0.651,0.607,�k��,4.9,��
2021/06/28,12:10,0.632,0.936,0.592,1.138,0.820,0.372,0.651,0.606,�k�k��,4.7,��
2021/06/28,12:20,0.632,0.933,0.593,1.141,0.822,0.374,0.651,0.606,�k�k��,3.8,��
2021/06/28,12:30,0.631,0.932,0.593,1.140,0.820,0.371,0.652,0.606,�k�k��,3.4,��
2021/06/28,12:40,0.630,0.934,0.592,1.139,0.823,0.372,0.649,0.605,�k�k��,3.5,��
2021/06/28,12:50,0.631,0.932,0.594,1.140,0.821,0.373,0.652,0.609,�k�k��,4.2,��
2021/06/28,13:00,0.630,0.932,0.593,1.140,0.822,0.371,0.652,0.607,�k�k��,4.3,��
2021/06/28,13:10,0.633,0.934,0.594,1.140,0.823,0.373,0.651,0.607,�k�k��,4.1,��
2021/06/28,13:20,0.633,0.933,0.594,1.140,0.824,0.372,0.650,0.606,�k�k��,3.5,��
2021/06/28,13:30,0.631,0.933,0.594,1.140,0.824,0.372,0.650,0.607,�k�k��,3.8,��
2021/06/28,13:40,0.632,0.932,0.594,1.142,0.824,0.372,0.652,0.607,�k,3.8,��
2021/06/28,13:50,0.632,0.935,0.595,1.140,0.822,0.373,0.651,0.607,�k�k��,3.5,��
2021/06/28,14:00,0.634,0.934,0.595,1.142,0.823,0.373,0.653,0.606,�k,4.0,��
2021/06/28,14:10,0.633,0.934,0.594,1.142,0.823,0.373,0.649,0.606,���k��,3.1,��
2021/06/28,14:20,0.633,0.937,0.595,1.142,0.823,0.374,0.651,0.608,�k�k��,3.1,��
2021/06/28,14:30,0.633,0.934,0.594,1.142,0.823,0.374,0.652,0.606,�k�k��,2.9,��
2021/06/28,14:40,0.632,0.935,0.594,1.140,0.822,0.371,0.651,0.606,�k�k��,3.1,��
2021/06/28,14:50,0.633,0.936,0.593,1.144,0.823,0.372,0.653,0.607,�k�k��,3.3,��
2021/06/28,15:00,0.633,0.936,0.593,1.144,0.825,0.373,0.654,0.606,�k�k��,3.2,��
2021/06/28,15:10,0.635,0.935,0.596,1.145,0.822,0.371,0.651,0.606,�k�k��,4.0,��
2021/06/28,15:20,0.632,0.937,0.594,1.143,0.823,0.373,0.652,0.606,���k��,3.4,��
2021/06/28,15:30,0.634,0.934,0.596,1.143,0.825,0.373,0.653,0.607,�k��,4.1,��
2021/06/28,15:40,0.632,0.937,0.596,1.144,0.824,0.373,0.651,0.606,�k��,3.9,��
2021/06/28,15:50,0.632,0.936,0.595,1.144,0.824,0.373,0.651,0.607,�k�k��,4.1,��
2021/06/28,16:00,0.632,0.937,0.594,1.143,0.824,0.373,0.651,0.607,�k�k��,3.4,��
2021/06/28,16:10,0.634,0.938,0.595,1.145,0.824,0.372,0.651,0.607,�k�k��,3.9,��
2021/06/28,16:20,0.631,0.936,0.595,1.143,0.823,0.374,0.652,0.607,�k��,3.7,��
2021/06/28,16:30,0.631,0.937,0.594,1.143,0.826,0.373,0.651,0.606,�k�k��,3.8,��
2021/06/28,16:40,0.632,0.937,0.593,1.143,0.824,0.373,0.652,0.606,�k�k��,3.7,��
2021/06/28,16:50,0.632,0.936,0.595,1.144,0.823,0.371,0.650,0.606,�k��,3.6,��
2021/06/28,17:00,0.632,0.937,0.594,1.145,0.825,0.373,0.651,0.606,�k�k��,2.8,��
2021/06/28,17:10,0.630,0.936,0.595,1.144,0.826,0.373,0.652,0.605,�k�k��,2.6,��
2021/06/28,17:20,0.633,0.934,0.593,1.143,0.825,0.373,0.650,0.606,�k,2.9,��
2021/06/28,17:30,0.631,0.938,0.593,1.146,0.824,0.372,0.652,0.606,�k,2.8,��
2021/06/28,17:40,0.631,0.938,0.593,1.146,0.824,0.371,0.650,0.607,�k�k��,3.7,��
2021/06/28,17:50,0.631,0.937,0.595,1.146,0.827,0.373,0.651,0.605,�k�k��,3.4,��
2021/06/28,18:00,0.630,0.937,0.596,1.144,0.826,0.374,0.653,0.606,�k�k��,3.0,��
2021/06/28,18:10,0.633,0.939,0.596,1.145,0.823,0.373,0.652,0.607,�k,2.2,��
2021/06/28,18:20,0.631,0.938,0.596,1.145,0.825,0.372,0.651,0.607,�k,2.0,��
2021/06/28,18:30,0.632,0.939,0.596,1.146,0.824,0.372,0.650,0.607,�k,3.0,��
2021/06/28,18:40,0.632,0.937,0.597,1.145,0.825,0.372,0.652,0.606,�k,3.0,��
2021/06/28,18:50,0.631,0.940,0.597,1.145,0.824,0.372,0.653,0.606,�k,2.9,��
2021/06/28,19:00,0.632,0.939,0.598,1.148,0.826,0.373,0.653,0.608,�k,1.9,��
2021/06/28,19:10,0.632,0.939,0.595,1.149,0.829,0.373,0.654,0.608,�k,1.7,��
2021/06/28,19:20,0.631,0.938,0.596,1.146,0.826,0.373,0.653,0.607,�k�k��,1.9,��
2021/06/28,19:30,0.634,0.938,0.597,1.149,0.829,0.374,0.652,0.608,�k�k��,2.5,��
2021/06/28,19:40,0.633,0.941,0.597,1.147,0.826,0.372,0.651,0.608,�k,2.6,�L
2021/06/28,19:50,0.634,0.941,0.597,1.146,0.827,0.372,0.652,0.608,�k,2.3,�L
2021/06/28,20:00,0.633,0.938,0.597,1.148,0.828,0.374,0.652,0.607,�k,2.6,��
2021/06/28,20:10,0.633,0.938,0.597,1.148,0.827,0.373,0.654,0.608,�k,2.6,��
2021/06/28,20:20,0.633,0.939,0.597,1.147,0.826,0.373,0.653,0.608,�k,3.0,�L
2021/06/28,20:30,0.634,0.940,0.597,1.147,0.826,0.373,0.652,0.608,�k,2.6,��
2021/06/28,20:40,0.636,0.940,0.597,1.146,0.828,0.373,0.654,0.607,�k�k��,2.3,�L
2021/06/28,20:50,0.633,0.940,0.597,1.147,0.827,0.372,0.654,0.609,�k�k��,2.6,�L
2021/06/28,21:00,0.633,0.940,0.599,1.148,0.826,0.372,0.652,0.609,�k,2.5,�L
2021/06/28,21:10,0.632,0.939,0.595,1.146,0.825,0.372,0.653,0.608,�k�k��,2.5,�L
2021/06/28,21:20,0.630,0.937,0.597,1.148,0.825,0.374,0.654,0.607,�k�k��,2.6,�L
2021/06/28,21:30,0.630,0.939,0.594,1.146,0.824,0.372,0.651,0.607,�k�k��,2.6,�L
2021/06/28,21:40,0.629,0.937,0.596,1.145,0.825,0.371,0.652,0.608,�k�k��,2.9,��
2021/06/28,21:50,0.629,0.935,0.595,1.146,0.823,0.373,0.652,0.607,�k�k��,3.4,��
2021/06/28,22:00,0.631,0.938,0.595,1.146,0.826,0.372,0.651,0.608,�k�k��,3.9,��
2021/06/28,22:10,0.630,0.937,0.594,1.146,0.825,0.371,0.651,0.608,�k�k��,3.4,��
2021/06/28,22:20,0.630,0.938,0.595,1.145,0.824,0.372,0.651,0.607,�k�k��,2.5,��
2021/06/28,22:30,0.630,0.936,0.596,1.148,0.824,0.372,0.651,0.607,�k��,2.5,��
2021/06/28,22:40,0.630,0.937,0.594,1.146,0.823,0.372,0.652,0.607,�k��,2.3,��
2021/06/28,22:50,0.627,0.937,0.596,1.146,0.826,0.371,0.651,0.607,�k�k��,2.3,��
2021/06/28,23:00,0.628,0.938,0.595,1.145,0.823,0.372,0.652,0.607,�k��,2.3,��
2021/06/28,23:10,0.629,0.936,0.594,1.144,0.823,0.373,0.652,0.608,�k��,2.9,��
2021/06/28,23:20,0.629,0.934,0.594,1.145,0.824,0.371,0.651,0.607,�k��,5.2,��
2021/06/28,23:30,0.632,0.936,0.594,1.145,0.825,0.372,0.651,0.607,�k��,4.3,�L
2021/06/28,23:40,0.629,0.938,0.593,1.145,0.821,0.372,0.650,0.608,�k�k��,4.3,�L
2021/06/28,23:50,0.631,0.937,0.594,1.145,0.822,0.372,0.651,0.607,�k��,5.1,�L
